| time (UTC) | temp F | wind direction | speed knots | gust knots | rain 1hr in | rain 24hr in | rain mn in | humidity % | barometer mb |
| 20260507134857 | 73 | 230 | 13.0 | 0.0 | 0.00 | 0.00 | 0.00 | 44 | 1013.0 |
| 20260507133356 | 73 | 230 | 13.0 | 0.0 | 0.00 | 0.00 | 0.00 | 44 | 1013.0 |
| 20260507131853 | 73 | 230 | 13.0 | 0.0 | 0.00 | 0.00 | 0.00 | 44 | 1013.0 |
| 20260507130356 | 73 | 230 | 13.0 | 0.0 | 0.00 | 0.00 | 0.00 | 44 | 1013.0 |
| 20260507124853 | 77 | 190 | 7.8 | 0.0 | 0.00 | 0.00 | 0.00 | 34 | 1014.0 |
| 20260507123435 | 77 | 190 | 7.8 | 0.0 | 0.00 | 0.00 | 0.00 | 34 | 1014.0 |
| 20260507121856 | 77 | 190 | 7.8 | 0.0 | 0.00 | 0.00 | 0.00 | 34 | 1014.0 |
| 20260507120357 | 77 | 190 | 7.8 | 0.0 | 0.00 | 0.00 | 0.00 | 34 | 1014.0 |
| 20260507114857 | 75 | 2.6 | 0.0 | 0.00 | 0.00 | 0.00 | 36 | 1014.0 | |
| 20260507113423 | 0 | 0.0 | 0.0 | 0.00 | 0.00 | 0.00 | |||
| 20260507111856 | 75 | 2.6 | 0.0 | 0.00 | 0.00 | 0.00 | 36 | 1014.0 | |
| 20260507110356 | 0 | 0.0 | 0.0 | 0.00 | 0.00 | 0.00 | |||
| 20260507104856 | 73 | 2.6 | 0.0 | 0.00 | 0.00 | 0.00 | 47 | 1015.0 | |
| 20260507103356 | 73 | 2.6 | 0.0 | 0.00 | 0.00 | 0.00 | 47 | 1015.0 | |
| 20260507101856 | 73 | 2.6 | 0.0 | 0.00 | 0.00 | 0.00 | 47 | 1015.0 | |
| 20260507100357 | 73 | 2.6 | 0.0 | 0.00 | 0.00 | 0.00 | 47 | 1015.0 | |
| 20260507094857 | 0 | 0.0 | 0.0 | 0.00 | 0.00 | 0.00 | |||
| 20260507093357 | 0 | 0.0 | 0.0 | 0.00 | 0.00 | 0.00 | |||
| 20260507091858 | 0 | 0.0 | 0.0 | 0.00 | 0.00 | 0.00 | |||
| 20260507090357 | 0 | 0.0 | 0.0 | 0.00 | 0.00 | 0.00 | |||
| 20260507084857 | 68 | 160 | 2.6 | 0.0 | 0.00 | 0.00 | 0.00 | 53 | 1015.0 |
| 20260507083357 | 68 | 160 | 2.6 | 0.0 | 0.00 | 0.00 | 0.00 | 53 | 1015.0 |
| 20260507081857 | 68 | 160 | 2.6 | 0.0 | 0.00 | 0.00 | 0.00 | 53 | 1015.0 |
| 20260507080357 | 68 | 160 | 2.6 | 0.0 | 0.00 | 0.00 | 0.00 | 53 | 1015.0 |
| 20260507074857 | 66 | 180 | 2.6 | 0.0 | 0.00 | 0.00 | 0.00 | 56 | 1015.0 |
| 20260507073356 | 66 | 180 | 2.6 | 0.0 | 0.00 | 0.00 | 0.00 | 56 | 1015.0 |
| 20260507071857 | 66 | 180 | 2.6 | 0.0 | 0.00 | 0.00 | 0.00 | 56 | 1015.0 |
| 20260507070356 | 66 | 180 | 2.6 | 0.0 | 0.00 | 0.00 | 0.00 | 56 | 1015.0 |
| 20260507064856 | 59 | 180 | 1.7 | 0.0 | 0.00 | 0.00 | 0.00 | 68 | 1015.0 |
| 20260507063357 | 59 | 180 | 1.7 | 0.0 | 0.00 | 0.00 | 0.00 | 68 | 1015.0 |
| 20260507061906 | 59 | 180 | 1.7 | 0.0 | 0.00 | 0.00 | 0.00 | 68 | 1015.0 |
| 20260507060357 | 59 | 180 | 1.7 | 0.0 | 0.00 | 0.00 | 0.00 | 68 | 1015.0 |
| 20260507054856 | 57 | 190 | 1.7 | 0.0 | 0.00 | 0.00 | 0.00 | 67 | 1014.0 |
| 20260507053404 | 57 | 190 | 1.7 | 0.0 | 0.00 | 0.00 | 0.00 | 67 | 1014.0 |
| 20260507051857 | 57 | 190 | 1.7 | 0.0 | 0.00 | 0.00 | 0.00 | 67 | 1014.0 |
| 20260507050356 | 0 | 0.0 | 0.0 | 0.00 | 0.00 | 0.00 | |||
| 20260507044850 | 48 | 350 | 1.7 | 0.0 | 0.00 | 0.00 | 0.00 | 87 | 1014.0 |
| 20260507043356 | 48 | 350 | 1.7 | 0.0 | 0.00 | 0.00 | 0.00 | 87 | 1014.0 |
| 20260507041857 | 48 | 350 | 1.7 | 0.0 | 0.00 | 0.00 | 0.00 | 87 | 1014.0 |
| 20260507040356 | 48 | 350 | 1.7 | 0.0 | 0.00 | 0.00 | 0.00 | 87 | 1014.0 |
| 20260507034853 | 52 | 70 | 1.7 | 0.0 | 0.00 | 0.00 | 0.00 | 72 | 1014.0 |
| 20260507033356 | 52 | 70 | 1.7 | 0.0 | 0.00 | 0.00 | 0.00 | 72 | 1014.0 |
| 20260507031853 | 52 | 70 | 1.7 | 0.0 | 0.00 | 0.00 | 0.00 | 72 | 1014.0 |
| 20260507030356 | 52 | 70 | 1.7 | 0.0 | 0.00 | 0.00 | 0.00 | 72 | 1014.0 |
| 20260507024853 | 46 | 300 | 7.0 | 0.0 | 0.00 | 0.00 | 0.00 | 100 | 1013.0 |
| 20260507023356 | 46 | 300 | 7.0 | 0.0 | 0.00 | 0.00 | 0.00 | 100 | 1013.0 |
| 20260507021857 | 0 | 0.0 | 0.0 | 0.00 | 0.00 | 0.00 | |||
| 20260507020356 | 0 | 0.0 | 0.0 | 0.00 | 0.00 | 0.00 | |||
| 20260507014856 | 48 | 300 | 7.0 | 0.0 | 0.00 | 0.00 | 0.00 | 94 | 1013.0 |
| 20260507013356 | 48 | 300 | 7.0 | 0.0 | 0.00 | 0.00 | 0.00 | 94 | 1013.0 |
| 20260507011856 | 48 | 300 | 7.0 | 0.0 | 0.00 | 0.00 | 0.00 | 94 | 1013.0 |
| 20260507010357 | 48 | 300 | 7.0 | 0.0 | 0.00 | 0.00 | 0.00 | 94 | 1013.0 |
| 20260507004856 | 48 | 300 | 7.0 | 0.0 | 0.00 | 0.00 | 0.00 | 94 | 1013.0 |
| 20260507003357 | 50 | 300 | 7.0 | 0.0 | 0.00 | 0.00 | 0.00 | 88 | 1013.0 |
| 20260507001856 | 50 | 300 | 7.0 | 0.0 | 0.00 | 0.00 | 0.00 | 88 | 1013.0 |
| 20260507000357 | 50 | 300 | 7.0 | 0.0 | 0.00 | 0.00 | 0.00 | 88 | 1013.0 |
| 20260506234856 | 55 | 230 | 6.1 | 0.0 | 0.00 | 0.00 | 0.00 | 82 | 1013.0 |
| 20260506233356 | 55 | 230 | 6.1 | 0.0 | 0.00 | 0.00 | 0.00 | 82 | 1013.0 |
| 20260506231854 | 55 | 230 | 6.1 | 0.0 | 0.00 | 0.00 | 0.00 | 82 | 1013.0 |
| 20260506230356 | 55 | 230 | 6.1 | 0.0 | 0.00 | 0.00 | 0.00 | 82 | 1013.0 |
| 20260506224853 | 57 | 300 | 7.0 | 0.0 | 0.00 | 0.00 | 0.00 | 67 | 1013.0 |
| 20260506223356 | 57 | 300 | 7.0 | 0.0 | 0.00 | 0.00 | 0.00 | 67 | 1013.0 |
| 20260506221856 | 57 | 300 | 7.0 | 0.0 | 0.00 | 0.00 | 0.00 | 67 | 1013.0 |
| 20260506220356 | 0 | 0.0 | 0.0 | 0.00 | 0.00 | 0.00 | |||
| 20260506214909 | 59 | 300 | 7.0 | 0.0 | 0.00 | 0.00 | 0.00 | 63 | 1013.0 |
| 20260506213357 | 59 | 300 | 7.0 | 0.0 | 0.00 | 0.00 | 0.00 | 63 | 1013.0 |
| 20260506211850 | 59 | 300 | 7.0 | 0.0 | 0.00 | 0.00 | 0.00 | 63 | 1013.0 |
| 20260506210356 | 59 | 300 | 7.0 | 0.0 | 0.00 | 0.00 | 0.00 | 63 | 1013.0 |
| 20260506204857 | 63 | 300 | 7.0 | 0.0 | 0.00 | 0.00 | 0.00 | 56 | 1012.0 |
| 20260506203356 | 63 | 300 | 7.0 | 0.0 | 0.00 | 0.00 | 0.00 | 56 | 1012.0 |
| 20260506201850 | 63 | 300 | 7.0 | 0.0 | 0.00 | 0.00 | 0.00 | 56 | 1012.0 |
| 20260506200356 | 63 | 300 | 7.0 | 0.0 | 0.00 | 0.00 | 0.00 | 56 | 1012.0 |
| 20260506194912 | 68 | 300 | 5.2 | 0.0 | 0.00 | 0.00 | 0.00 | 43 | 1012.0 |
| 20260506193420 | 68 | 300 | 5.2 | 0.0 | 0.00 | 0.00 | 0.00 | 43 | 1012.0 |
| 20260506191857 | 68 | 300 | 5.2 | 0.0 | 0.00 | 0.00 | 0.00 | 43 | 1012.0 |
| 20260506190357 | 68 | 300 | 5.2 | 0.0 | 0.00 | 0.00 | 0.00 | 43 | 1012.0 |
| 20260506184859 | 68 | 180 | 6.1 | 0.0 | 0.00 | 0.00 | 0.00 | 46 | 1011.0 |
| 20260506183356 | 68 | 180 | 6.1 | 0.0 | 0.00 | 0.00 | 0.00 | 46 | 1011.0 |
| 20260506181857 | 68 | 180 | 6.1 | 0.0 | 0.00 | 0.00 | 0.00 | 46 | 1011.0 |
| 20260506180357 | 0 | 0.0 | 0.0 | 0.00 | 0.00 | 0.00 | |||
| 20260506174857 | 73 | 230 | 6.1 | 0.0 | 0.00 | 0.00 | 0.00 | 38 | 1011.0 |
| 20260506173356 | 73 | 230 | 6.1 | 0.0 | 0.00 | 0.00 | 0.00 | 38 | 1011.0 |
| 20260506171857 | 73 | 230 | 6.1 | 0.0 | 0.00 | 0.00 | 0.00 | 38 | 1011.0 |
| 20260506170356 | 73 | 230 | 6.1 | 0.0 | 0.00 | 0.00 | 0.00 | 38 | 1011.0 |
| 20260506164856 | 79 | 210 | 6.1 | 0.0 | 0.00 | 0.00 | 0.00 | 30 | 1011.0 |
| 20260506163356 | 79 | 210 | 6.1 | 0.0 | 0.00 | 0.00 | 0.00 | 30 | 1011.0 |
| 20260506161857 | 79 | 210 | 6.1 | 0.0 | 0.00 | 0.00 | 0.00 | 30 | 1011.0 |
| 20260506160356 | 79 | 210 | 6.1 | 0.0 | 0.00 | 0.00 | 0.00 | 30 | 1011.0 |
| 20260506154857 | 81 | 180 | 7.0 | 0.0 | 0.00 | 0.00 | 0.00 | 23 | 1011.0 |
| 20260506153356 | 81 | 180 | 7.0 | 0.0 | 0.00 | 0.00 | 0.00 | 23 | 1011.0 |
| 20260506151856 | 81 | 180 | 7.0 | 0.0 | 0.00 | 0.00 | 0.00 | 23 | 1011.0 |
| 20260506150402 | 81 | 180 | 7.0 | 0.0 | 0.00 | 0.00 | 0.00 | 23 | 1011.0 |
| 20260506144856 | 81 | 190 | 5.2 | 0.0 | 0.00 | 0.00 | 0.00 | 23 | 1011.0 |
| 20260506143408 | 81 | 190 | 5.2 | 0.0 | 0.00 | 0.00 | 0.00 | 23 | 1011.0 |
| 20260506141856 | 81 | 190 | 5.2 | 0.0 | 0.00 | 0.00 | 0.00 | 23 | 1011.0 |
| 20260506140519 | 0 | 0.0 | 0.0 | 0.00 | 0.00 | 0.00 |